Location: Betra
(48.4113°N, 8.6634°E)
Time: 14:58:29
(UTC+00:00)

Cosmos 1850 Rocket - Pass Details

Date: 14 August 2024
Orbit: 751 x 783 km, 74.0° (Epoch: 17 September)

Event Time Altitude Azimuth Distance (km) Brightness Sun altitude
Rises 19:40:25 0° 333° (NNW) 3,263 8.4 -9.6°
Reaches altitude 10° 19:42:50 10° 329° (NNW) 2,336 7.7 -9.9°
Maximum altitude 19:47:59 53° 254° (WSW) 955 4.8 -10.6°
Drops below altitude 10° 19:53:08 10° 178° (S) 2,332 6.1 -11.3°
Enters shadow 19:54:48 - 175° (S) 2,964 6.6 -11.5°
